Flag for France Weather past 2 weeks in Nancy, France

32 °F

Mostly cloudy.

Feels Like: 24 °F
Forecast: 38 / 51 °F
Wind: 10 mph from South

Location: Nancy / Ochey

Current Time: Nov 28, 2015 at 2:25:19 AM

Latest Report: Nov 28, 2015 at 1:00 AM

Visibility: N/A

Pressure: 29.92 "Hg

Humidity: 93%

Dew point: 30 °F

Location of NancyLocation

Historic Weather in Nancy — Graph


Nancy temperature yesterday

Maximum temperature yesterday: 34 °F (at 2:30 PM)
Minimum temperature yesterday: 27 °F (at 6:00 AM)
Average temperature yesterday: 30 °F

Past Weeks' High & Low Weather Summary

High57 °F (Nov 15, 2:30 PM)100% (Nov 13, 5:00 AM)30.48 "Hg (Nov 13, 5:00 AM)
Low27 °F (Nov 24, 1:00 AM)54% (Nov 16, 4:30 AM)29.45 "Hg (Nov 21, 9:30 AM)
Average43 °F90%30.03 "Hg
* Reported Nov 13 1:30 AM — Nov 28 1:00 AM, Nancy, Weather by CustomWeather, © 2015

Note: Actual official high and low records may vary slightly from our data, if they occured in-between our weather recording intervals... More about our weather records


Nancy weather history for previous 24 hours

Time TempWeatherWind HumidityBarometerVisibility
1:00 AM
Sat, Nov 28
32 °FMostly cloudy.10 mph93%29.92 "HgN/A
12:30 AM32 °FClear.10 mph93%29.92 "Hg10 mi
12:00 AM30 °FLow clouds.7 mph100%29.92 "HgN/A
11:30 PM
Fri, Nov 27
30 °FPassing clouds.7 mph100%29.92 "Hg6 mi
11:00 PM30 °FLow clouds.7 mph100%29.95 "Hg6 mi
10:30 PM30 °FLow clouds.6 mph100%29.95 "Hg4 mi
10:00 PM30 °FLow clouds.9 mph100%29.95 "Hg5 mi
9:30 PM32 °FLow clouds.9 mph100%29.95 "Hg6 mi
9:00 PM32 °FLow clouds.7 mph100%29.98 "Hg4 mi
8:30 PM32 °FIce fog.7 mph100%29.98 "Hg2 mi
8:00 PM32 °FIce fog.8 mph100%29.98 "Hg3 mi
7:30 PM32 °FIce fog.8 mph100%29.98 "Hg3 mi
7:00 PM32 °FIce fog.7 mph100%29.98 "Hg2 mi
6:30 PM32 °FIce fog.8 mph100%29.98 "Hg1 mi
6:00 PM32 °FIce fog.6 mph100%29.98 "Hg1 mi
5:30 PM32 °FFog.3 mph100%30.01 "Hg1 mi
5:00 PM32 °FFog.2 mph100%30.01 "Hg1 mi
4:30 PM32 °FIce fog.3 mph100%30.01 "Hg1 mi
4:00 PM32 °FFog.3 mph100%30.01 "Hg0 mi
3:30 PM32 °FFog.1 mph100%30.01 "Hg0 mi
3:00 PM34 °FFog.No wind100%30.01 "Hg0 mi
2:30 PM34 °FFog.5 mph100%30.01 "Hg0 mi
2:00 PM32 °FDense fog.2 mph100%30.04 "Hg1 mi
1:30 PM32 °FFog.No wind100%30.04 "Hg0 mi
1:00 PM32 °FFog.1 mph100%30.04 "Hg0 mi
12:30 PM32 °FFog.2 mph100%30.07 "Hg0 mi
12:00 PM32 °FIce fog.No wind100%30.09 "Hg0 mi
11:30 AM30 °FIce fog.1 mph100%30.09 "Hg0 mi
11:00 AM30 °FIce fog.1 mph100%30.09 "Hg0 mi
10:30 AM30 °FIce fog.2 mph100%30.09 "Hg0 mi
10:00 AM28 °FIce fog.No wind100%30.09 "Hg0 mi
9:30 AM28 °FIce fog.6 mph100%30.09 "Hg0 mi
9:00 AM28 °FIce fog.No wind100%30.12 "Hg0 mi
8:00 AM27 °FIce fog.2 mph100%30.09 "Hg1 mi
7:30 AM27 °FIce fog.No wind100%30.09 "Hg1 mi
7:00 AM27 °FIce fog.No wind100%30.09 "Hg1 mi
6:30 AM27 °FIce fog.No wind100%30.09 "Hg0 mi
6:00 AM27 °FIce fog.No wind100%30.12 "Hg0 mi
5:00 AM28 °FIce fog.No wind100%30.12 "Hg0 mi
4:30 AM28 °FIce fog.1 mph100%30.12 "Hg0 mi
4:00 AM28 °FIce fog.No wind100%30.12 "Hg0 mi
3:30 AM28 °FIce fog.No wind100%30.15 "Hg0 mi
3:00 AM30 °FIce fog.No wind100%30.15 "Hg0 mi
2:30 AM28 °FIce fog.No wind100%30.15 "Hg0 mi
2:00 AM28 °FIce fog.No wind100%30.15 "Hg0 mi
Weather by CustomWeather, © 2015

See weather overviewHow to use our weather pages